Location: Burkes Observatory
(44.7598°N, 69.4315°W)
Time: 14:22:50
(UTC-04:00)

Daily predictions for brighter satellites

Satellite Brightness Start Highest point End
(mag) Time Altitude Azimuth Time Altitude Azimuth Time Altitude Azimuth
Cosmos 1862 4.0 20:37:05 10° SSE 20:40:48 35° E 20:44:33 10° NNE
H-2A R/B 2.5 20:36:48 10° SE 20:40:53 45° ENE 20:44:54 10° N
Cosmos 1624 Rocket 4.4 20:36:01 10° SSW 20:41:17 71° WNW 20:46:37 10° NNE
Cosmos 1606 2.9 20:40:44 10° N 20:44:38 57° E 20:48:29 10° SSE
COSMOS 2487 3.1 20:42:06 10° N 20:45:36 43° ENE 20:49:03 10° SE
Meteor 1-27 Rocket 3.7 20:42:42 10° N 20:48:16 69° ENE 20:53:45 10° SSE
ERS-1 Rocket 3.0 20:45:19 10° SSE 20:50:22 89° W 20:55:26 10° NNW
ALOS 3.9 20:46:33 10° SSW 20:50:50 35° W 20:55:09 10° NNW
Cosmos 407 Rocket 3.8 20:46:04 10° NNW 20:51:20 72° WSW 20:56:37 10° S
Cosmos 1892 4.1 20:48:31 10° SSW 20:52:11 43° WNW 20:55:55 10° N
Cosmos 1140 Rocket 3.9 20:49:33 10° NNW 20:54:34 49° ENE 20:59:33 10° SE
SL-8 R/B 4.0 20:49:47 10° W 20:54:36 71° NNW 20:59:25 10° ENE
SJ-11-01 4.5 20:50:36 10° S 20:55:21 78° WSW 21:00:08 10° NNW
Okean 3 3.7 20:55:59 10° N 21:00:12 53° ENE 21:04:22 10° SSE
CZ-4 SHROUD 4.2 20:59:59 12° SE 21:02:27 31° ENE 21:05:15 10° N
PSLV R/B 3.9 21:00:59 13° SE 21:03:18 33° ENE 21:06:01 10° N
Cosmos 1782 3.8 20:59:55 10° NNW 21:03:50 49° W 21:07:43 10° SSW
Cosmos 1452 Rocket 3.5 21:00:12 10° SSW 21:05:27 77° ESE 21:10:45 10° NNE
H-2A R/B 3.8 21:01:53 10° ESE 21:05:35 19° ENE 21:09:14 10° NNE
Cosmos 1674 Rocket 4.5 21:01:32 10° NNW 21:05:52 50° W 21:10:09 10° SSW
CZ-4B R/B 4.5 21:02:36 10° NE 21:06:41 25° E 21:10:17 12° SSE
ATLAS 5 CENTAUR R/B 4.2 21:03:48 10° WNW 21:08:47 27° WSW 21:14:00 10° SSW
ARGOS 3.9 21:05:00 12° SE 21:09:29 36° ENE 21:14:21 10° N
Okean 2 Rocket 3.4 21:08:49 10° SSE 21:13:03 47° E 21:17:17 10° NNE
Nadezhda 3 Rocket 4.2 21:10:47 10° N 21:17:10 83° W 21:23:32 10° S
SPOT 1/Viking Rocket 3.9 21:16:28 14° SE 21:20:46 50° ENE 21:25:48 10° N
Terra 3.5 21:17:54 12° ESE 21:20:48 19° ENE 21:24:08 10° NNE
Cosmos 1242 Rocket 2.7 21:17:25 10° N 21:21:03 60° ENE 21:23:49 16° SSE
Cosmos 1939 Rocket 3.6 21:17:57 10° S 21:21:44 50° W 21:25:36 10° NNW
Cosmos 1782 Rocket 3.5 21:19:23 10° S 21:23:50 76° E 21:28:19 10° NNE
Cosmos 1184 Rocket 2.7 21:20:41 10° S 21:24:00 83° E 21:27:22 10° NNE
YAOGAN 6 2.6 21:21:31 17° SSE 21:24:06 60° ENE 21:27:36 10° N
Cosmos 1238 Rocket 2.7 21:20:57 10° NNW 21:24:12 71° W 21:28:02 10° S
ISS -3.5 21:22:07 10° SW 21:25:22 82° SSE 21:28:38 10° ENE
Cosmos 1408 2.7 21:22:41 10° SSW 21:26:21 76° W 21:30:00 10° N
SPOT 5 3.2 21:25:21 10° S 21:30:39 80° WSW 21:36:04 10° NNW
DNEPR-1 R/B 3.9 21:26:01 10° NW 21:31:32 80° WSW 21:34:51 19° SSE
Cosmos 1833 Rocket 3.2 21:26:30 10° NNW 21:31:56 47° ENE 21:35:46 19° SE
UNK 4.5 21:27:25 10° NNE 21:33:36 62° ESE 21:39:27 10° S
Cosmos 1850 Rocket 4.0 21:30:34 10° NNW 21:35:56 84° ENE 21:39:55 18° SSE
MetOp-A 4.2 21:31:46 12° SSE 21:36:44 83° WSW 21:42:07 10° NNW
Cosmos 1975 Rocket 3.2 21:32:39 10° NNW 21:36:58 73° W 21:40:51 13° S
Cosmos 1825 2.9 21:33:16 10° SSW 21:37:01 56° W 21:40:48 10° N
Cosmos 2278 Rocket 2.3 21:31:38 10° SSW 21:37:19 80° WNW 21:43:02 10° NNE
Cosmos 1844 Rocket 4.1 21:32:39 10° SW 21:37:59 41° WNW 21:43:20 10° NNE
Cosmos 2084 4.0 21:36:28 10° SW 21:40:14 53° NW 21:44:01 10° NNE
USA 229 DEB 3.9 21:33:47 10° NW 21:40:53 70° NE 21:46:06 20° SE
USA 229 3.9 21:33:53 10° NW 21:40:59 70° NE 21:46:12 20° SE
AVUM R/B 4.4 21:39:23 10° N 21:42:39 34° NE 21:44:05 24° ESE
Lacrosse 5 4.0 21:45:59 10° E 21:45:59 10° E 21:46:09 10° E
Cosmos 2341 Rocket 4.3 21:39:56 10° SSW 21:46:13 69° W 21:52:29 10° N
Cosmos 1536 Rocket 3.9 21:45:28 10° N 21:49:51 50° ENE 21:52:00 27° SE
Intercosmos 25 2.9 21:47:58 14° S 21:50:52 82° W 21:54:03 10° N
Meteor 1-18 Rocket 4.5 21:46:43 10° N 21:52:34 59° ENE 21:56:10 24° SSE
Cosmos 2082 Rocket 2.2 21:49:45 10° NNW 21:55:30 86° ENE 21:58:58 25° SSE
SL-8 Rocket 4.0 21:50:18 10° S 21:56:35 87° E 22:02:51 10° N
Cosmos 1741 Rocket 4.2 21:51:40 10° NNW 21:56:53 67° WSW 22:00:22 21° S
Meteor 1-14 Rocket 4.1 21:53:53 11° S 21:59:24 83° E 22:05:01 10° NNE
Timation 2 Rocket 4.3 21:54:09 10° NW 22:00:01 57° WSW 22:04:13 19° S
Cosmos 1812 3.3 21:59:29 10° N 22:03:11 42° ENE 22:04:10 34° ESE
USA 245 3.8 22:05:04 25° SSW 22:06:51 53° W 22:11:01 10° NNW
Cosmos 1110 Rocket 4.2 22:10:42 29° SSE 22:13:06 50° ESE 22:18:08 10° NNE
Cosmos 2297 3.8 22:07:53 10° SSW 22:13:36 80° WNW 22:19:22 10° NNE
BREEZE-M DEB (TANK) 4.3 22:12:29 10° W 22:15:49 54° N 22:25:58 10° ENE
H-2A R/B 4.5 22:14:15 10° SW 22:17:07 17° W 22:19:58 10° NW
IGS 5A 3.7 22:17:59 40° SE 22:19:07 54° ENE 22:23:12 10° N
Cosmos 2151 Rocket 3.7 22:16:23 22° SSW 22:19:17 77° W 22:23:50 10° N
CZ-4 R/B 3.7 22:15:52 10° NNE 22:20:34 86° WNW 22:23:30 23° SSW
CZ-3C R/B 4.4 22:18:38 10° SW 22:21:37 11° SSW 22:23:49 10° SSW
Cosmos 1025 Rocket 4.4 22:20:50 10° NNE 22:24:29 25° ENE 22:25:10 24° E
Cosmos 864 Rocket 4.5 22:21:57 18° S 22:26:41 82° W 22:32:54 10° N
NOSS 3-1 (C) 4.3 22:21:29 10° NNW 22:28:50 61° NE 22:33:40 26° ESE
BREEZE-M DEB (TANK) 3.3 22:31:47 10° WNW 22:33:54 35° N 22:38:07 10° ENE
Gbstr 26 Del rocket 3.1 22:29:27 10° WNW 22:34:34 76° NNE 22:35:56 43° ESE
Cosmos 1300 Rocket 3.5 22:33:36 49° SSE 22:34:36 66° E 22:39:01 10° NNE
SL-8 R/B 4.3 22:32:48 10° WNW 22:37:33 55° N 22:41:13 16° E
Cosmos 2366 rocket 4.4 22:32:20 15° SSW 22:37:40 65° W 22:44:00 10° N
Cosmos 1486 Rocket 4.1 22:32:41 10° NNW 22:38:01 68° ENE 22:39:43 42° SE
USA 234 3.4 22:32:56 10° ENE 22:39:12 46° SE 22:43:01 23° SSW
Okean 1 Rocket 3.1 22:38:38 52° SE 22:39:27 64° E 22:43:54 10° NNE
CZ-4C R/B 3.9 22:41:21 40° SSW 22:42:22 52° W 22:46:26 10° NNW
Landsat 7 4.3 22:40:33 33° SSW 22:42:25 55° W 22:47:07 10° NNW
H-2A R/B 2.3 22:42:13 35° S 22:44:29 67° WSW 22:49:47 10° NNW
Cosmos 2369 Rocket 3.2 22:45:04 27° E 22:45:04 27° E 22:49:31 10° NE
ARGOS 4.5 22:46:31 18° SSW 22:49:44 33° W 22:54:32 10° NNW
Okean 1-7 Rocket 3.5 22:46:07 10° N 22:50:39 88° E 22:51:25 61° SSE
Timation 1 Rocket 4.4 22:46:57 16° SSW 22:51:55 81° WNW 22:57:57 10° NNE
Cosmos 1400 Rocket 3.5 22:54:43 42° ENE 22:54:43 42° ENE 22:58:16 10° NNE
Meteor 1-19 Rocket 4.4 22:49:02 10° N 22:54:52 64° ENE 22:56:31 45° SE
Cosmos 1536 3.7 22:56:52 35° ENE 22:56:52 35° ENE 22:59:58 10° NNE
Terra 2.2 22:56:47 40° SSW 22:58:08 55° W 23:02:50 10° NNW
Cosmos 1633 3.9 23:00:04 31° ENE 23:00:04 31° ENE 23:02:34 10° NNE
ISS -1.2 22:59:11 10° WNW 23:02:04 28° NNW 23:04:58 10° NE
Cosmos 1302 Rocket 3.9 23:06:46 54° S 23:08:00 80° ESE 23:13:19 10° NNE
Cosmos 1000 Rocket 4.5 23:04:44 10° N 23:11:00 81° W 23:13:07 45° S
Spot 4 4.3 23:11:30 44° SW 23:12:34 53° W 23:17:20 10° NNW
Cosmos 1833 Rocket 4.1 23:10:54 10° NW 23:15:36 28° WSW 23:17:28 23° SW
Cosmos 1943 Rocket 3.8 23:18:11 20° E 23:18:11 20° E 23:21:20 10° NE
Cosmos 2239 Rocket 4.4 23:16:19 45° S 23:18:26 88° E 23:24:47 10° N
Spot 2 4.2 23:14:44 10° N 23:19:03 66° WNW 23:19:31 60° WSW
H-2A R/B 4.4 23:18:22 10° NE 23:21:01 21° ENE 23:21:01 21° ENE
Lacrosse 5 1.7 23:25:04 68° SSW 23:25:40 80° SE 23:30:48 10° NE
CZ-4C R/B 4.4 23:30:16 34° NE 23:30:16 34° NE 23:33:06 10° N
Iridium 4 Rocket 3.9 23:27:50 10° N 23:33:45 76° W 23:35:10 53° SSW
ASTEX 1 4.4 23:31:59 10° N 23:36:36 40° WNW 23:38:12 31° WSW
Cosmos 2082 Rocket 4.3 23:35:51 10° WNW 23:38:45 14° W 23:40:49 12° WSW
Cosmos 1892 Rocket 3.6 23:37:28 10° N 23:41:36 77° NW 23:41:36 77° NW
Cosmos 2084 Rocket 3.8 23:40:14 10° NW 23:43:25 57° NNW 23:43:25 57° NNW
Cosmos 1503 Rocket 4.1 23:40:53 10° NNW 23:46:04 62° WSW 23:46:27 60° SW
Meteor 2-4 Rocket 3.7 23:41:54 10° NNW 23:47:19 67° W 23:48:06 59° SW
NOSS 3-1 (A) 4.1 23:42:46 10° NW 23:50:16 68° WSW 23:52:37 48° S
Genesis I 4.2 23:52:50 44° WNW 23:53:05 45° NW 23:56:58 10° NNE
Cosmos 2263 4.1 23:53:34 69° SE 23:53:49 70° ESE 23:59:27 10° NNE
CZ-4B R/B 3.4 23:57:11 25° NNE 23:57:11 25° NNE 23:58:46 10° N
